Flag for Germany Weather past 2 weeks in Offenburg, Baden-Württemberg, Germany

Now
68 °F

Passing clouds.


Feels Like: 68 °F
Forecast: 56 / 75 °F
Wind: 3 mph from Southwest

Location: Lahr - CAN-AFB

Current Time: Jul 25, 2014 at 9:44:05 AM

Latest Report: Jul 25, 2014 at 8:50 AM


Visibility: N/A

Pressure: 29.92 "Hg

Humidity: 73%

Dew point: 59 °F

Location of OffenburgLocation

Historic Weather in Offenburg — Graph

°F

Offenburg temperature yesterday

Maximum temperature yesterday: 82 °F (at 4:20 PM)
Minimum temperature yesterday: 70 °F (at 9:50 AM)
Average temperature yesterday: 80 °F

Past Weeks' High & Low Weather Summary

 TemperatureHumidityPressure
High93 °F (Jul 19, 5:20 PM)100% (Jul 10, 9:20 AM)30.18 "Hg (Jul 10, 9:20 AM)
Low55 °F (Jul 10, 8:20 AM)26% (Jul 18, 4:20 PM)29.77 "Hg (Jul 10, 8:20 AM)
Average74 °F65%29.98 "Hg
* Reported Jul 10 8:20 AM — Jul 25 8:20 AM, Offenburg, Weather by CustomWeather, © 2014

Note: Actual official high and low records may vary slightly from our data, if they occured in-between our weather recording intervals... More about our weather records

Advertising

Offenburg weather history for previous 24 hours

 ConditionsComfort  
Time TempWeatherWind HumidityBarometerVisibility
8:20 AM
Jul 25
64 °FPassing clouds.5 mph78%29.92 "HgN/A
7:50 AM64 °FPassing clouds.3 mph78%29.92 "HgN/A
7:50 PM
Jul 24
79 °FSunny.5 mph45%29.86 "Hg10 mi
7:20 PM81 °FSunny.3 mph39%29.86 "Hg10 mi
6:50 PM81 °FPassing clouds.5 mph42%29.86 "HgN/A
6:20 PM81 °FPassing clouds.7 mph42%29.86 "HgN/A
5:50 PM81 °FSunny.8 mph42%29.86 "Hg10 mi
5:20 PM81 °FSunny.9 mph37%29.86 "Hg10 mi
4:50 PM81 °FSunny.9 mph37%29.86 "Hg10 mi
4:20 PM82 °FSunny.9 mph40%29.89 "Hg10 mi
3:50 PM81 °FSunny.7 mph42%29.89 "Hg10 mi
3:20 PM81 °FPassing clouds.10 mph39%29.89 "HgN/A
2:50 PM79 °FPassing clouds.12 mph42%29.86 "HgN/A
2:20 PM81 °FPassing clouds.12 mph45%29.89 "HgN/A
1:50 PM81 °FPassing clouds.8 mph45%29.89 "HgN/A
9:50 AM70 °FPassing clouds.5 mph69%29.89 "HgN/A
Weather by CustomWeather, © 2014

See weather overviewHow to use our weather pages